Regional Weather Roundup
Issued by NWS Newport/Morehead, NC

Current Version | Previous Version | Graphics & Text | Print | Product List | Glossary Off
Versions: 1 2 3 4 5 6 7 8 9 10 11 12 13 14 15 16 17 18 19 20 21 22 23 24 25 26 27 28 29 30 31 32 33 34 35 36 37 38 39 40 41 42 43 44 45 46 47 48 49 50
000 ASUS42 KMHX 051412 RWRMHX WEATHER ROUNDUP FOR EASTERN NORTH CAROLINA NATIONAL WEATHER SERVICE NEWPORT/MOREHEAD CITY NC 900 AM EST MON DEC 05 2016 NOTE: "FAIR" INDICATES FEW OR NO CLOUDS BELOW 12,000 FEET WITH NO SIGNIFICANT WEATHER AND/OR OBSTRUCTIONS TO VISIBILITY NCZ015>017-031-032-045>047-102-103-051500- NORTH COAST CITY SKY/WX TMP DP RH WIND PRES REMARKS EDENTON CLOUDY 48 46 91 CALM 29.99R ELIZABETH CITY CLOUDY 48 47 96 N10 29.98R KITTY HAWK CLOUDY 52 52 100 N8G18 29.94R MANTEO CLOUDY 51 51 100 N14 29.96R $$ NCZ045>047-081-094-103-104-051500- CENTRAL COAST CITY SKY/WX TMP DP RH WIND PRES REMARKS FRISCO LGT RAIN 54 53 97 NW9 29.94R $$ NCZ095-097-098-100-101-051500- SOUTHERN COAST CITY SKY/WX TMP DP RH WIND PRES REMARKS BEAUFORT CLOUDY 55 53 93 NW13G18 29.97R CEDAR ISLAND NOT AVBL JACKSONVILLE CLOUDY 48 47 96 N13 29.99R PINEY ISLAND CLOUDY N/A N/A N/A NW15 29.97 WILMINGTON CLOUDY 49 49 100 N10 30.00R $$ NCZ011>013-027>030-043-044-078>080-089-090>093-098-051500- COASTAL PLAIN CITY SKY/WX TMP DP RH WIND PRES REMARKS AHOSKIE CLOUDY 43 42 97 NW3 30.01R CLINTON PTSUNNY 45 45 100 CALM 30.03R ELIZABETHTOWN CLOUDY 45 45 100 CALM 30.01S GOLDSBORO PTSUNNY 46 46 100 NW3 30.01R GREENVILLE CLOUDY 45 45 100 N3 30.02S HAVELOCK CLOUDY 50 48 93 NW16 29.99R KENANSVILLE CLOUDY 46 45 93 N6 30.02R KINSTON CLOUDY 46 46 100 CALM 30.02R NEW BERN CLOUDY 48 46 93 NW7 30.01R RICHLANDS CLOUDY 46 45 96 VRB3 30.00R ROCKY MOUNT CLOUDY 45 45 100 N7 30.02R WASHINGTON CLOUDY 46 44 95 N8 30.00R WHITEVILLE LGT RAIN 46 45 95 CALM 30.01R $$ AMZ130-135-150-152-154-156-158-170-250-252-270-ANZ085-086-088-633-658-670-051500- MARINE OBSERVATIONS STATION/POSITION TIME TEMP WIND PRES WAVE SWELL AIR SEA DIR/SP/G HT/PER HT/PER (UTC) (F) (DEG/KT/KT) (MB) (FT/S) (FT/S) CHESAPEAKE LIGHT NOT AVBL 64 E VA BEACH 1250 56 60 360/ 21/ 25 1012.5 3/ 9 2/ 9 DUCK 1342 51 54 360/ 19/ 21 1013.6 2 E DUCK NOT AVBL OREGON INLET 1342 53 56 340/ 15/ 20 1013.5 13E OREGON INLT NOT AVBL HATTERAS CG 1342 54 60 320/ 19/ 21 1012.8 DIAMOND BUOY 1250 71 74 230/ 27/ 33 1011.4 6/ 6 3/11 CAPE LOOKOUT 1300 60 290/ 10/ 11 1013.1 BEAUFORT LAB 1342 55 55 330/ 9/ 13 1013.5 30 SE NEW RVR IN 1308 58 71 310/ 16/ 23 1012.6 30 SE NEW RVR IN NOT AVBL 27 SE WRIGHTSVLE 1308 62 67 300/ 16/ 23 1012.2 5 SE WRIGHTSVLE 1308 54 63 310/ 14/ 25 1014.1 225 S CAPE HAT 1250 71 73 200/ 17/ 19 1017.9 5/ 5 2/ 9 41 SE CHARLESTON 1250 74 74 220/ 23/ 29 1012.6 7/ 6 $$

USA.gov is the U.S. government's official web portal to all federal, state and local government web resources and services.